When you browse on this site, cookies collect data to enhance your experience and personalize the content and advertising you see.
Visit our Privacy Policy to learn more. By continuing to use the site, you agree to this use of cookies and data.
  • In United Kingdom
  • List of Countries
  • For 7 days
  • Water Temperature
  • Weather Map
  • Weather Widgets
  • user-avatar
    Login

    Hourly Weather Aberchirder

    Today, 3 June, Wednesday

    Time Temperature Precipitation Wind Pressure Humidity
    00:00 +6°C° 0.3 mm 7 mps 752 mmHg 92%
    01:00 +7°C° 0 mm 6 mps 752 mmHg 91%
    02:00 +5°C° 0 mm 6 mps 751 mmHg 90%
    03:00 +5°C° 0 mm 6 mps 751 mmHg 90%
    04:00 +5°C° 0.1 mm 7 mps 751 mmHg 90%
    05:00 +5°C° 0.1 mm 7 mps 751 mmHg 91%
    06:00 +6°C° 0.1 mm 8 mps 751 mmHg 92%
    07:00 +6°C° 0.2 mm 8 mps 751 mmHg 92%
    08:00 +6°C° 0.2 mm 8 mps 751 mmHg 92%
    09:00 +6°C° 0.2 mm 8 mps 751 mmHg 92%
    10:00 +6°C° 0.3 mm 8 mps 750 mmHg 92%
    11:00 +7°C° 0.3 mm 8 mps 750 mmHg 92%
    12:00 +7°C° 0.3 mm 8 mps 750 mmHg 92%
    13:00 +7°C° 0.1 mm 8 mps 750 mmHg 91%
    14:00 +8°C° 0.1 mm 7 mps 750 mmHg 91%
    15:00 +6°C° 0.1 mm 7 mps 749 mmHg 90%
    16:00 +6°C° 0.1 mm 7 mps 749 mmHg 88%
    17:00 +7°C° 0.1 mm 6 mps 749 mmHg 86%
    18:00 +7°C° 0.1 mm 6 mps 749 mmHg 83%
    19:00 +7°C° 0 mm 5 mps 749 mmHg 84%
    20:00 +6°C° 0 mm 5 mps 748 mmHg 84%
    21:00 +5°C° 0 mm 5 mps 748 mmHg 85%
    22:00 +5°C° 0 mm 5 mps 748 mmHg 85%
    23:00 +5°C° 0 mm 5 mps 747 mmHg 85%

    Tomorrow, 4 June, Thursday

    Time Temperature Precipitation Wind Pressure Humidity
    00:00 +5°C° 0 mm 4 mps 747 mmHg 85%
    01:00 +5°C° 0.1 mm 4 mps 746 mmHg 86%
    02:00 +4°C° 0.1 mm 4 mps 746 mmHg 87%
    03:00 +4°C° 0.1 mm 4 mps 745 mmHg 88%
    04:00 +5°C° 0 mm 4 mps 744 mmHg 86%
    05:00 +5°C° 0 mm 4 mps 744 mmHg 85%
    06:00 +5°C° 0 mm 4 mps 743 mmHg 83%
    07:00 +6°C° 0 mm 4 mps 743 mmHg 81%
    08:00 +7°C° 0 mm 4 mps 743 mmHg 79%
    09:00 +8°C° 0 mm 3 mps 742 mmHg 77%
    10:00 +7°C° 0.1 mm 4 mps 742 mmHg 77%
    11:00 +8°C° 0.1 mm 4 mps 742 mmHg 78%
    12:00 +8°C° 0.1 mm 4 mps 741 mmHg 78%
    13:00 +8°C° 0.1 mm 4 mps 741 mmHg 74%
    14:00 +10°C° 0.1 mm 4 mps 741 mmHg 70%
    15:00 +9°C° 0.1 mm 5 mps 740 mmHg 66%
    16:00 +9°C° 0 mm 5 mps 740 mmHg 68%
    17:00 +8°C° 0 mm 5 mps 740 mmHg 70%
    18:00 +8°C° 0 mm 6 mps 740 mmHg 72%
    19:00 +7°C° 0.1 mm 6 mps 740 mmHg 77%
    20:00 +4°C° 0.1 mm 6 mps 740 mmHg 82%
    21:00 +3°C° 0.1 mm 6 mps 739 mmHg 87%
    22:00 +3°C° 0.1 mm 6 mps 739 mmHg 87%
    23:00 +3°C° 0.1 mm 6 mps 739 mmHg 87%

    Day after tomorrow, 5 June, Friday

    Time Temperature Precipitation Wind Pressure Humidity
    00:00 +3°C° 0.1 mm 7 mps 738 mmHg 88%
    01:00 +3°C° 0.1 mm 7 mps 738 mmHg 88%
    02:00 +2°C° 0.1 mm 8 mps 737 mmHg 88%
    03:00 +2°C° 0.1 mm 8 mps 737 mmHg 88%
    04:00 +2°C° 0.2 mm 9 mps 736 mmHg 88%
    05:00 +3°C° 0.2 mm 9 mps 736 mmHg 87%
    06:00 +3°C° 0.2 mm 10 mps 735 mmHg 86%
    07:00 +3°C° 0.2 mm 10 mps 735 mmHg 84%
    08:00 +4°C° 0.2 mm 11 mps 735 mmHg 82%
    09:00 +4°C° 0.2 mm 12 mps 734 mmHg 80%
    10:00 +5°C° 0.1 mm 13 mps 734 mmHg 76%
    11:00 +5°C° 0.1 mm 13 mps 733 mmHg 72%
    12:00 +5°C° 0.1 mm 14 mps 733 mmHg 67%
    13:00 +5°C° 0.1 mm 14 mps 732 mmHg 72%
    14:00 +5°C° 0.1 mm 14 mps 732 mmHg 76%
    15:00 +4°C° 0.1 mm 14 mps 731 mmHg 80%
    16:00 +4°C° 1.2 mm 14 mps 731 mmHg 85%
    17:00 +4°C° 1.2 mm 15 mps 730 mmHg 89%
    18:00 +4°C° 1.2 mm 15 mps 730 mmHg 94%
    19:00 +4°C° 2.5 mm 13 mps 729 mmHg 94%
    20:00 +6°C° 2.5 mm 11 mps 729 mmHg 94%
    21:00 +6°C° 2.5 mm 9 mps 729 mmHg 94%
    22:00 +6°C° 0.5 mm 8 mps 729 mmHg 94%
    23:00 +6°C° 0.5 mm 8 mps 729 mmHg 94%

    6 June, Saturday

    Time Temperature Precipitation Wind Pressure Humidity
    00:00 +6°C° 0.5 mm 7 mps 728 mmHg 93%
    01:00 +6°C° 0.7 mm 7 mps 728 mmHg 93%
    02:00 +6°C° 0.7 mm 8 mps 728 mmHg 92%
    03:00 +6°C° 0.7 mm 8 mps 728 mmHg 92%
    04:00 +6°C° 0.3 mm 9 mps 728 mmHg 92%
    05:00 +6°C° 0.3 mm 10 mps 728 mmHg 91%
    06:00 +7°C° 0.3 mm 11 mps 727 mmHg 90%
    07:00 +7°C° 0.7 mm 12 mps 728 mmHg 90%
    08:00 +7°C° 0.7 mm 12 mps 728 mmHg 90%
    09:00 +8°C° 0.7 mm 12 mps 728 mmHg 90%
    10:00 +8°C° 0.8 mm 12 mps 729 mmHg 89%
    11:00 +9°C° 0.8 mm 12 mps 729 mmHg 88%
    12:00 +9°C° 0.8 mm 12 mps 730 mmHg 86%
    13:00 +9°C° 0.6 mm 11 mps 730 mmHg 87%
    14:00 +9°C° 0.6 mm 10 mps 731 mmHg 87%
    15:00 +9°C° 0.6 mm 10 mps 731 mmHg 88%
    16:00 +10°C° 0.5 mm 9 mps 732 mmHg 88%
    17:00 +10°C° 0.5 mm 9 mps 733 mmHg 89%
    18:00 +10°C° 0.5 mm 8 mps 734 mmHg 89%
    19:00 +9°C° 0.2 mm 8 mps 734 mmHg 91%
    20:00 +8°C° 0.2 mm 7 mps 735 mmHg 92%
    21:00 +8°C° 0.2 mm 6 mps 736 mmHg 94%
    22:00 +8°C° 0.1 mm 5 mps 737 mmHg 95%
    23:00 +7°C° 0.1 mm 5 mps 737 mmHg 95%

    7 June, Sunday

    Time Temperature Precipitation Wind Pressure Humidity
    00:00 +7°C° 0.1 mm 4 mps 737 mmHg 96%
    01:00 +7°C° 0 mm 4 mps 738 mmHg 96%
    02:00 +7°C° 0 mm 4 mps 738 mmHg 97%
    03:00 +7°C° 0 mm 4 mps 738 mmHg 97%
    04:00 +7°C° 0 mm 4 mps 739 mmHg 96%
    05:00 +8°C° 0 mm 4 mps 739 mmHg 95%
    06:00 +9°C° 0 mm 5 mps 739 mmHg 95%
    07:00 +9°C° 0.1 mm 6 mps 740 mmHg 94%
    08:00 +10°C° 0.1 mm 6 mps 740 mmHg 93%
    09:00 +10°C° 0.1 mm 7 mps 741 mmHg 92%
    10:00 +10°C° 0.7 mm 7 mps 741 mmHg 93%
    11:00 +10°C° 0.7 mm 7 mps 741 mmHg 95%
    12:00 +9°C° 0.7 mm 8 mps 742 mmHg 96%
    13:00 +9°C° 0.3 mm 8 mps 742 mmHg 95%
    14:00 +9°C° 0.3 mm 8 mps 742 mmHg 95%
    15:00 +9°C° 0.3 mm 8 mps 742 mmHg 94%
    16:00 +9°C° 0.1 mm 8 mps 743 mmHg 94%
    17:00 +9°C° 0.1 mm 8 mps 743 mmHg 94%
    18:00 +7°C° 0.1 mm 8 mps 743 mmHg 93%
    19:00 +7°C° 0.1 mm 9 mps 743 mmHg 94%
    20:00 +7°C° 0.1 mm 9 mps 744 mmHg 94%
    21:00 +7°C° 0.1 mm 9 mps 744 mmHg 95%
    22:00 +7°C° 0.1 mm 9 mps 744 mmHg 95%
    23:00 +7°C° 0.1 mm 9 mps 744 mmHg 95%

    8 June, Monday

    Time Temperature Precipitation Wind Pressure Humidity
    00:00 +7°C° 0.1 mm 8 mps 745 mmHg 95%
    01:00 +9°C° 0.2 mm 8 mps 745 mmHg 96%
    02:00 +9°C° 0.2 mm 7 mps 745 mmHg 96%
    03:00 +9°C° 0.2 mm 6 mps 745 mmHg 97%
    04:00 +9°C° 0.3 mm 5 mps 745 mmHg 96%
    05:00 +10°C° 0.3 mm 4 mps 745 mmHg 96%
    06:00 +10°C° 0.3 mm 4 mps 745 mmHg 95%
    07:00 +11°C° 0.1 mm 4 mps 746 mmHg 93%
    08:00 +10°C° 0.1 mm 5 mps 746 mmHg 90%
    09:00 +11°C° 0.1 mm 6 mps 746 mmHg 88%
    10:00 +11°C° 0.2 mm 6 mps 746 mmHg 87%
    11:00 +13°C° 0.2 mm 6 mps 747 mmHg 87%
    12:00 +13°C° 0.2 mm 6 mps 747 mmHg 87%
    13:00 +13°C° 0.5 mm 6 mps 747 mmHg 87%
    14:00 +11°C° 0.5 mm 6 mps 747 mmHg 88%
    15:00 +11°C° 0.5 mm 6 mps 747 mmHg 89%
    16:00 +11°C° 0.3 mm 6 mps 747 mmHg 89%
    17:00 +12°C° 0.3 mm 5 mps 747 mmHg 89%
    18:00 +12°C° 0.3 mm 5 mps 747 mmHg 89%
    19:00 +11°C° 0.1 mm 4 mps 747 mmHg 92%
    20:00 +10°C° 0.1 mm 4 mps 747 mmHg 94%
    21:00 +9°C° 0.1 mm 3 mps 748 mmHg 96%
    22:00 +9°C° 0.1 mm 3 mps 748 mmHg 96%
    23:00 +9°C° 0.1 mm 3 mps 748 mmHg 96%
    Show more